This is the latest recevied weather packets stored in our database for station/object HP1MRA-15. If no packets are shown the sender has not sent any weather packets the latest 10 day(s).
| Time | Temp. | Humidity | Pressure | Rain* | Wind** | Luminosity | Snow |
|---|---|---|---|---|---|---|---|
| 1788473659 | 30.56° C | 62% | 1000 hPa | 1.27 mm | - | - | - |
| 1788473360 | 30.56° C | 61% | 1000 hPa | 2.03 mm | - | - | - |
| 1788473357 | 30.56° C | 60% | 1000.1 hPa | 2.03 mm | - | - | - |
| 1788473060 | 30.56° C | 59% | 1000.1 hPa | 2.03 mm | - | - | - |
| 1788472760 | 30.56° C | 59% | 1000.1 hPa | 2.03 mm | - | - | - |
| 1788472460 | 30.56° C | 60% | 1000.1 hPa | 2.03 mm | - | - | - |
| 1788472458 | 30.56° C | 60% | 1000.1 hPa | 2.03 mm | - | - | - |
| 1788472159 | 30.56° C | 60% | 1000.1 hPa | 2.03 mm | - | - | - |
| 1788471860 | 30.56° C | 59% | 1000.2 hPa | 1.78 mm | - | - | - |
| 1788471559 | 30° C | 60% | 1000.2 hPa | 1.78 mm | - | - | - |
| 1788471556 | 30° C | 60% | 1000.2 hPa | 1.78 mm | - | - | - |
| 1788471260 | 30° C | 61% | 1000.3 hPa | 1.78 mm | - | - | - |
| 1788470959 | 30.56° C | 61% | 1000.4 hPa | 1.27 mm | - | - | - |
| 1788470657 | 30.56° C | 59% | 1000.3 hPa | 1.02 mm | - | - | - |
| 1788470359 | 30.56° C | 59% | 1000.6 hPa | 1.02 mm | - | - | - |
| 1788470060 | - | - | 1000.7 hPa | 0.51 mm | - | - | - |
| 1788469759 | 31.67° C | 59% | 1000.3 hPa | 0 mm | - | - | - |
| 1788469757 | 31.67° C | 59% | 1000.3 hPa | 0 mm | - | - | - |
| 1788469460 | 32.22° C | 60% | 1000.2 hPa | 0 mm | - | - | - |
| 1788469159 | 33.33° C | 57% | 1000.1 hPa | 0 mm | - | - | - |
| 1788468859 | 34.44° C | 56% | 1000 hPa | 0 mm | - | - | - |
| 1788468858 | 34.44° C | 56% | 1000 hPa | 0 mm | - | - | - |
| 1788468559 | 35.56° C | 56% | 999.9 hPa | 0 mm | - | - | - |
| 1788468259 | 37.22° C | 55% | 999.8 hPa | 0 mm | - | - | - |
| 1788467956 | 37.22° C | 55% | 999.6 hPa | 0 mm | - | - | - |
* Rain latest hour (hover to see other rain measurements)
** Current wind speed in m/s (hover to see current wind gust speed)